Regional Weather Roundup
Issued by NWS Grand Forks, ND

Home | Current Version | Previous Version | Text Only | Print | Product List | Glossary On
Versions: 1 2 3 4 5 6 7 8 9 10 11 12 13 14 15 16 17 18 19 20 21 22 23 24 25 26 27 28 29 30 31 32 33 34 35 36 37 38 39 40 41 42 43 44 45 46 47 48 49 50
000
ASUS43 KFGF 280031
RWRFGF
PRAIRIE TO PINES  WEATHER ROUNDUP
NATIONAL WEATHER SERVICE EASTERN NORTH DAKOTA/GRAND FORKS ND
700 PM CDT FRI MAY 27 2016

 **SATELLITE DATA USED TO AUGMENT SKY COVER AT AUTOMATED STATIONS**
 *****  WEATHER ACROSS EASTERN NORTH DAKOTA  *****

CITY           SKY/WX    TMP DP  RH WIND       PRES   REMARKS
GRAND FORKS    PTSUNNY   74  54  49 N9        29.75S
6HR MIN TEMP:  69; 6HR MAX TEMP:  75;

GRAND FRKS AFB MOSUNNY   72  52  48 E6        29.77S
GRAND FRKS NWS   N/A     72 N/A N/A NE9         N/A
DEVILS LAKE    SUNNY     70  47  43 CALM      29.80S
6HR MIN TEMP:  63; 6HR MAX TEMP:  70;

FARGO          CLOUDY    63  60  90 NE5       29.77S
WAHPETON ARPT  CLOUDY    63  55  77 N14       29.77R
$$

 ***** WEATHER ACROSS CENTRAL AND WESTERN NORTH DAKOTA  *****

CITY           SKY/WX    TMP DP  RH WIND       PRES   REMARKS
BISMARCK       PTSUNNY   69  47  45 CALM      29.78F
6HR MIN TEMP:  67; 6HR MAX TEMP:  72;

MINOT          PTSUNNY   68  57  68 NE16G24   29.81R
6HR MIN TEMP:  65; 6HR MAX TEMP:  72;

JAMESTOWN      CLOUDY    70  48  45 N6        29.77S
6HR MIN TEMP:  66; 6HR MAX TEMP:  73;

MINOT AFB      CLOUDY    63  55  75 NE15      29.80R
GARRISON         N/A     67  50  54 CALM      29.80S
WILLISTON      PTSUNNY   66  51  58 NE13      29.83S
6HR MIN TEMP:  65; 6HR MAX TEMP:  68;

DICKINSON      CLOUDY    65  43  44 E8        29.79S
6HR MIN TEMP:  63; 6HR MAX TEMP:  70;

HETTINGER      CLOUDY    65  48  54 CALM      29.82F
6HR MIN TEMP:  64; 6HR MAX TEMP:  70;

$$

 *****  OTHER AIRPORT OBSERVATIONS IN OUR AREA  *****

CITY           SKY/WX    TMP DP  RH WIND       PRES   REMARKS
WALHALLA       FAIR      66  66 100 N14       29.80S
GRAFTON AIRPOR FAIR      72  55  56 E7        29.79R
VALLEY CITY AR CLOUDY    68  57  68 E6        29.80R
CANDO          CLOUDY    63  59  88 N15G21    29.83F
CAVALIER APRT  FAIR      68  57  68 N17       29.78S
GWINNER        FAIR      61  59  94 W14       29.78S
SHEYENNE NWR     N/A     60  59  95 NW7       29.95S
ROLLA          CLOUDY    55  55 100 NE16      29.87R
 ***** THE ABOVE OBSERVATIONS ARE NON NWS ARE NOT QUALITY
       CONTROLLED AND MAY MIS-REPORT RAIN FOR SNOW...
$$

  *****  WEATHER ACROSS NORTHERN MINNESOTA  *****

CITY           SKY/WX    TMP DP  RH WIND       PRES   REMARKS
FLAG ISLAND    LGT RAIN  63  57  82 CALM      29.83S
WARROAD        CLOUDY    63  59  88 E3        29.83S
ROSEAU         CLOUDY    63  57  82 SE5       29.82S
HALLOCK        MOSUNNY   73  52  46 E7        29.77S
THF RVR FALLS  CLOUDY    66  55  68 E8        29.80R
6HR MIN TEMP:  64; 6HR MAX TEMP:  73; 6HR PCP:  0.10;

BAUDETTE       PTSUNNY   68  54  60 SE8       29.83F
6HR MIN TEMP:  68; 6HR MAX TEMP:  73; 6HR PCP:  0.02;

WASKISH        CLOUDY    66  55  68 SE7       29.83S
CROOKSTON      CLOUDY    64  63  94 E6        29.77S
STEPHEN NDAWN    N/A     73  55  53 N7          N/A
GREENBUSH NDAW   N/A     63  63 100 E6          N/A
$$
  *****  WEATHER ACROSS CENTRAL AND WEST MINNESOTA  *****

CITY           SKY/WX    TMP DP  RH WIND       PRES   REMARKS
FOSSTON        CLOUDY    64  55  72 SE13      29.80S
BEMIDJI        CLOUDY    63  55  77 SE12      29.83S
PARK RAPIDS    CLOUDY    64  55  72 E9        29.81S
6HR MIN TEMP:  64; 6HR MAX TEMP:  70; 6HR PCP: TRACE;

ELBOW LAKE     CLOUDY    65  59  81 SE12      29.77R
6HR MIN TEMP:  64; 6HR MAX TEMP:  69; 6HR PCP:  0.01;

WADENA         PTSUNNY   61  55  82 E5        29.80S
DETROIT LAKES  LGT RAIN  64  57  77 SE12      29.80R
MOORHEAD       DRIZZLE   63  61  94 NW3       29.78R
FERGUS FALLS   CLOUDY    68  59  73 E8        29.74R
MORRIS MN      CLOUDY    66  63  88 E10       29.73S
STAPLES        LGT RAIN  59  55  88 NE3       29.80F
$$
  *****  WEATHER ELSEWHERE ACROSS MINNESOTA  *****

CITY           SKY/WX    TMP DP  RH WIND       PRES   REMARKS
DULUTH         CLOUDY    56  53  90 E6        29.83F
6HR MIN TEMP:  49; 6HR MAX TEMP:  63; 6HR PCP:  0.08;

INTRNTL FALLS  CLOUDY    68  51  54 E5        29.84F
6HR MIN TEMP:  65; 6HR MAX TEMP:  68;

ELY            LGT RAIN  61  57  88 E3        29.86F
CLOQUET        CLOUDY    52  50  93 E6        29.83S
WHEATON        CLOUDY    72  59  64 E5        29.77R
BRAINERD       LGT RAIN  61  58  90 E7        29.80F
6HR MIN TEMP:  59; 6HR MAX TEMP:  62; 6HR PCP:  0.31;

HIBBING        CLOUDY    60  57  89 E5        29.84F
6HR MIN TEMP:  58; 6HR MAX TEMP:  60; 6HR PCP:  0.08;

ALEXANDRIA     PTSUNNY   62  59  90 E16G22    29.77F
6HR MIN TEMP:  62; 6HR MAX TEMP:  66; 6HR PCP:  0.29;

SAINT CLOUD    CLOUDY    61  59  93 N7        29.77F
6HR MIN TEMP:  60; 6HR MAX TEMP:  64; 6HR PCP:  0.20;

MINNEAPOLIS    PTSUNNY   66  61  84 N7        29.74S
6HR MIN TEMP:  63; 6HR MAX TEMP:  68; 6HR PCP:  0.11;

$$

  *****  WEATHER ACROSS SOUTH DAKOTA  *****

CITY           SKY/WX    TMP DP  RH WIND       PRES   REMARKS
SIOUX FALLS    PTSUNNY   73  59  61 NE8       29.70F
6HR MIN TEMP:  70; 6HR MAX TEMP:  76;

BROOKINGS      SUNNY     70  56  61 N7        29.72S
WATERTOWN      SUNNY     69  54  58 NW7       29.73F
6HR MIN TEMP:  60; 6HR MAX TEMP:  69; 6HR PCP:  0.03;

HURON          SUNNY     69  60  73 N9        29.72F
6HR MIN TEMP:  62; 6HR MAX TEMP:  72; 6HR PCP: TRACE;

SISSETON         N/A     68  56  65 N8        29.74R
ABERDEEN       CLOUDY    65  58  78 W5        29.75F
6HR MIN TEMP:  62; 6HR MAX TEMP:  74; 6HR PCP:  0.05;

MITCHELL       PTSUNNY   72  58  61 N5        29.72F
PIERRE         CLOUDY    69  52  54 VRB6      29.76F
6HR MIN TEMP:  65; 6HR MAX TEMP:  71;

MOBRIDGE       CLOUDY    71  47  42 SW5       29.75F
RAPID CITY     PTSUNNY   61  48  62 SE8       29.83F
6HR MIN TEMP:  59; 6HR MAX TEMP:  64;

$$

  *****  SOME WEATHER IN NEARBY STATES *****

CITY           SKY/WX    TMP DP  RH WIND       PRES   REMARKS
GLASGOW MT     PTSUNNY   69  46  43 E5        29.80F
6HR MIN TEMP:  64; 6HR MAX TEMP:  70;

GREAT FALLS MT CLOUDY    59  40  49 N15       29.85R
6HR MIN TEMP:  59; 6HR MAX TEMP:  67;

CHEYENNE WY    PTSUNNY   53  41  63 NE7       29.92R
6HR MIN TEMP:  52; 6HR MAX TEMP:  59;

SCOTTSBLUFF NE CLOUDY    60  45  57 W3        29.87F
6HR MIN TEMP:  57; 6HR MAX TEMP:  60; 6HR PCP: TRACE;

OMAHA NE       CLOUDY    77  59  53 E6        29.68S
6HR MIN TEMP:  72; 6HR MAX TEMP:  79;

DES MOINES IA  PTSUNNY   75  61  61 N6        29.71F
6HR MIN TEMP:  69; 6HR MAX TEMP:  77;

DAVENPORT IA   MOSUNNY   77  67  71 S15       29.75S
6HR MIN TEMP:  72; 6HR MAX TEMP:  78; 6HR PCP: TRACE;

CHICAGO IL     CLOUDY    76  66  71 S10       29.82R
6HR MIN TEMP:  71; 6HR MAX TEMP:  81; 6HR PCP:  0.09;

EAU CLAIRE WI  CLOUDY    68  66  93 W8        29.72S
6HR MIN TEMP:  66; 6HR MAX TEMP:  73; 6HR PCP:  0.28;

LA CROSSE WI   LGT RAIN  71  67  87 S8        29.70F
6HR MIN TEMP:  71; 6HR MAX TEMP:  77; 6HR PCP:  0.12;

$$

  *****  SOME NATIONAL WEATHER *****

CITY           SKY/WX    TMP DP  RH WIND       PRES   REMARKS
LA GUARDIA NY  MOCLDY    77  68  73 S9        30.00S
6HR MIN TEMP:  77; 6HR MAX TEMP:  86;

RALEIGH NC     PTCLDY    81  61  50 S7        30.09R
6HR MIN TEMP:  81; 6HR MAX TEMP:  88;

ATLANTA GA     PTCLDY    81  59  47 SE8G20    30.03S
6HR MIN TEMP:  81; 6HR MAX TEMP:  86;

NEW ORLEANS LA CLOUDY    81  68  64 SE13      29.92S
6HR MIN TEMP:  81; 6HR MAX TEMP:  87;

OKLAHOMA CITY  CLOUDY    70  61  73 S13       29.67S
6HR MIN TEMP:  68; 6HR MAX TEMP:  82; 6HR PCP:  0.01;

ALBUQUERQUE NM PTSUNNY   73  21  14 W17       29.86S
6HR MIN TEMP:  67; 6HR MAX TEMP:  77;

SALT LAKE CITY MOSUNNY   70  35  27 VRB3      29.88F
6HR MIN TEMP:  67; 6HR MAX TEMP:  74;

LOS ANGELES CA MOSUNNY  C1F1C2F2C3F3C4F4C5F5C6F6C7F7C8F8C9F9CaFaCbFbCcFcCd!



USA.gov is the U.S. government's official web portal to all federal, state and local government web resources and services.